Location: Moreno
(33.9175°N, 117.1578°W)
Time: 16:34:00
(UTC+00:00)

Cosmos 1869 Rocket - Pass Details

Date: 18 April 2024
Orbit: 600 x 630 km, 82.5° (Epoch: 20 May)

Event Time Altitude Azimuth Distance (km) Brightness Sun altitude
Rises 12:05:59 0° 358° (N) 2,869 7.3 -14.1°
Reaches altitude 10° 12:08:15 10° 3° (N) 1,957 6.5 -13.6°
Maximum altitude 12:12:30 56° 82° (E) 719 4.3 -12.8°
Drops below altitude 10° 12:16:42 10° 161° (SSE) 1,935 6.1 -12.0°
Sets 12:18:56 0° 165° (SSE) 2,832 6.9 -11.6°
